Location: *
(42.3442°N, 9.2072°E)
Time: 19:47:58
(UTC+00:00)

Hubble Space Telescope - Pass Details

Date: 09 April 2020
Orbit: 536 x 540 km, 28.5° (Epoch: 03 June)

Event Time Altitude Azimuth Distance (km) Brightness Sun altitude
Rises 18:54:15 0° 227° (SW) 2,664 4.7 -10.7°
Reaches altitude 10° 18:58:08 10° 190° (S) 1,775 3.3 -11.4°
Maximum altitude 18:59:15 11° 174° (S) 1,715 3.1 -11.6°
Drops below altitude 10° 19:00:23 10° 158° (SSE) 1,776 3.0 -11.8°
Enters shadow 19:00:37 10° 155° (SSE) 1,804 3.0 -11.8°
